Dewpoint
61 61 61 61 61 61 61 61 61 62 62 63 63 64 64 64 63 63 62 62 62 62 62 62 63 63 62 61 61 61 58 46 44 42 41 44 62 65 65 65 64 62 59 29 29 23 24 26 26 27 27 28 30 30 31 40 39 34 27 23 22 23 21 24 21 20 22 18 18 19 17 17 16 17 17 17 17 18 18 18 19 21 20 21 25 39 42 44
61 61 61 61 61 61 61 61 61 62 62 63 63 63 64 64 63 62 62 62 62 62 62 62 63 63 62 61 61 60 52 45 39 38 41 52 65 64 63 64 62 58 50 25 32 29 26 25 29 24 25 23 32 28 36 33 37 30 26 23 22 24 24 26 23 22 18 19 19 19 19 17 17 17 17 16 16 16 16 16 18 17 18 19 21 30 43 45
61 60 60 60 61 61 61 61 61 61 62 62 63 63 63 63 62 62 62 62 62 62 62 62 63 62 62 61 60 59 47 41 35 33 37 57 65 64 62 62 61 56 30 28 36 32 27 28 29 22 27 22 28 27 33 31 33 33 27 25 25 26 24 25 24 21 20 20 19 19 19 21 17 16 19 18 16 16 16 16 18 18 18 19 22 24 42 44
60 60 60 60 60 60 60 60 60 61 62 62 62 63 63 62 62 62 62 62 62 62 62 62 62 62 61 61 60 55 40 34 29 32 38 57 62 62 61 60 60 47 40 39 37 35 28 26 27 25 30 23 26 32 25 27 29 29 26 24 25 25 21 21 25 24 23 21 20 19 19 17 18 17 17 16 16 17 17 18 18 18 18 20 23 28 41 44
60 60 60 60 60 60 60 60 61 61 62 62 62 63 62 62 62 62 62 62 62 62 62 62 62 62 60 60 57 49 36 26 29 34 39 58 61 62 61 60 59 40 40 39 25 24 27 29 31 31 28 25 30 28 26 28 32 28 25 26 25 25 23 22 22 23 22 21 20 18 17 17 18 17 17 17 16 16 18 19 20 19 19 19 20 24 40 43
60 60 60 60 60 60 60 60 61 61 62 62 62 62 62 62 62 62 62 61 62 62 62 62 62 61 60 59 44 42 34 20 32 36 61 58 59 58 58 59 53 35 29 27 24 24 24 26 28 28 25 25 25 25 25 24 28 22 22 22 24 24 23 23 20 20 19 21 18 18 19 18 17 17 17 17 17 17 19 19 19 19 19 19 21 32 39 42
60 60 60 59 59 60 60 60 61 61 61 62 62 62 62 62 62 62 61 61 61 61 62 62 62 61 60 57 44 37 33 33 37 38 53 58 57 56 56 52 48 34 29 28 26 22 28 27 27 27 27 28 28 23 24 24 25 23 21 21 21 22 21 20 20 21 20 20 19 19 20 18 17 16 18 17 18 18 18 19 19 19 20 20 20 23 30 37
60 59 59 59 59 59 60 60 60 61 61 61 61 62 62 62 62 62 61 61 62 61 62 62 61 61 60 43 40 35 36 32 34 43 53 54 43 40 48 40 35 36 30 28 27 23 26 25 27 28 26 28 28 24 25 22 21 22 21 21 20 19 19 21 20 19 19 18 19 19 18 17 17 17 18 17 18 18 19 19 20 20 20 21 20 19 24 34
59 59 58 58 58 58 59 60 60 60 60 61 61 62 62 62 61 61 61 61 61 61 61 61 60 61 58 42 39 31 31 38 38 39 44 38 35 38 36 32 36 27 30 31 28 28 27 25 28 29 28 27 25 24 24 21 21 21 20 21 19 19 19 19 19 19 19 19 18 18 17 17 17 22 17 18 19 19 19 19 19 21 22 21 20 20 22 25
59 58 58 58 58 58 59 59 59 60 60 61 61 62 62 62 61 61 61 61 61 61 61 61 61 59 45 41 35 26 34 38 38 38 39 38 36 36 37 38 34 27 25 28 33 30 30 29 31 32 31 26 25 21 24 24 22 22 21 19 18 18 19 19 19 19 20 20 18 18 17 18 19 20 17 19 19 19 19 20 21 19 19 19 20 23 24 23
58 58 58 58 58 58 58 58 58 59 60 60 61 62 61 61 61 61 61 61 61 61 61 61 60 51 41 37 30 28 39 35 36 36 38 39 36 33 36 38 37 33 27 30 34 33 31 29 33 34 30 26 26 26 23 23 21 20 19 18 18 18 19 19 20 20 20 20 19 18 18 18 19 20 17 18 19 19 19 19 20 20 20 20 20 20 26 24
58 58 58 58 57 58 58 58 59 59 59 60 61 61 61 61 60 60 61 61 61 60 60 60 56 43 39 34 32 31 35 34 36 40 41 39 36 39 39 38 36 35 29 28 33 37 37 35 33 29 28 29 26 25 24 23 21 21 19 17 18 20 20 20 19 21 22 22 20 19 17 17 18 16 18 18 19 19 19 19 20 21 20 21 21 21 21 22
57 57 57 58 58 58 58 59 59 59 59 60 60 61 61 60 60 60 60 61 60 61 61 58 55 45 38 28 32 40 41 38 37 37 37 41 38 42 43 41 37 35 34 31 33 36 41 34 32 28 31 27 23 22 24 22 21 19 18 17 17 20 19 20 23 22 23 23 18 19 16 17 17 17 18 18 19 19 19 19 19 20 20 20 21 21 22 24
57 57 57 57 57 57 57 58 59 59 59 60 60 61 60 60 60 60 60 61 61 61 61 57 45 40 34 31 36 39 37 39 33 36 38 40 34 40 38 40 41 40 39 35 35 38 40 35 32 28 29 25 23 28 21 20 24 19 19 22 20 20 20 21 22 23 22 23 18 19 18 17 18 19 20 23 20 19 20 21 21 22 22 20 21 22 23 24
57 57 56 57 57 57 57 57 58 58 59 60 60 60 60 59 59 60 61 60 60 60 59 53 46 36 33 30 36 40 52 37 39 40 41 34 35 38 37 36 35 38 39 38 39 41 36 34 26 22 20 22 24 20 19 22 23 24 18 20 23 20 20 21 23 24 20 22 19 19 20 18 19 21 22 22 21 20 20 22 22 23 23 23 23 23 23 24
56 56 56 56 56 57 57 56 57 57 59 60 60 60 59 58 59 60 60 60 58 58 52 44 43 36 28 28 34 47 41 39 38 40 39 38 37 35 37 35 37 35 34 35 39 35 31 31 24 22 26 22 21 21 21 22 23 23 20 21 21 21 20 20 21 24 22 21 19 18 19 19 20 22 23 23 23 23 21 22 22 23 23 24 24 24 25 25
56 56 55 55 56 56 56 56 56 57 58 59 59 59 58 58 59 60 60 55 54 53 47 40 42 38 26 34 36 35 36 39 41 42 42 40 38 36 34 34 34 31 31 31 34 31 29 24 28 25 27 21 21 25 19 20 19 20 22 19 22 19 19 19 20 22 21 21 20 20 18 20 21 22 23 23 24 23 22 22 23 23 24 24 25 25 25 25
56 55 56 55 55 56 56 56 56 57 59 59 59 58 57 58 59 55 53 52 47 48 47 46 40 28 29 32 31 33 38 39 42 41 41 41 36 33 32 30 32 31 29 26 29 26 30 27 28 23 24 23 20 20 21 17 19 20 20 20 19 20 20 19 20 20 21 22 21 21 21 21 22 23 23 24 24 23 23 23 23 24 24 26 26 27 27 28
55 55 55 55 55 55 55 56 56 58 59 59 59 58 58 52 48 45 42 41 27 28 25 25 32 29 21 30 34 37 40 41 40 38 37 37 39 32 34 34 33 24 26 25 25 28 30 29 28 24 20 20 20 20 20 21 21 19 20 20 20 19 19 19 20 22 22 22 21 21 21 21 22 23 23 23 23 23 23 23 23 23 25 27 28 28 28 29
54 55 54 54 55 55 55 56 57 59 59 56 51 48 40 32 36 28 31 39 32 28 29 30 38 34 39 37 38 40 43 38 33 36 38 37 38 31 27 28 32 29 26 24 27 27 28 24 22 20 21 20 21 21 21 21 20 20 20 20 20 21 21 21 21 22 23 22 21 22 22 22 23 23 23 23 23 23 23 21 22 25 27 28 28 28 28 28
54 54 54 54 54 54 55 56 58 58 58 52 49 39 26 38 24 20 35 38 42 42 39 40 39 38 35 38 41 40 32 31 34 36 37 39 32 27 23 24 25 25 26 26 25 27 29 22 21 25 24 23 22 21 20 21 19 20 21 21 20 22 20 21 21 22 23 22 22 23 22 23 23 23 23 23 23 22 22 22 24 26 27 28 27 27 27 27
54 54 54 53 53 54 54 56 58 56 55 50 50 47 43 42 37 30 40 31 37 41 39 41 41 40 41 41 41 38 34 28 27 31 36 33 28 21 23 24 24 24 25 26 27 25 23 22 23 24 24 23 24 23 23 22 21 21 20 21 21 20 22 22 22 23 23 23 22 23 22 23 23 22 22 22 22 23 23 24 27 27 27 28 27 27 26 26
54 54 53 53 52 52 54 57 58 55 50 50 48 45 46 46 43 44 44 40 40 41 38 39 39 39 39 39 35 37 29 27 25 31 31 33 26 26 25 23 24 23 26 21 23 23 24 24 26 25 24 21 20 21 21 21 22 20 21 19 19 21 21 20 21 23 23 23 23 23 23 23 22 22 21 21 21 22 27 29 29 29 28 28 27 27 26 24
53 53 53 52 53 54 55 57 56 53 50 51 51 49 48 43 43 45 41 34 30 34 37 39 40 39 38 32 35 30 29 29 28 26 33 29 25 27 25 23 22 23 22 20 21 22 22 22 22 24 24 21 20 22 21 20 19 22 22 21 21 21 21 22 21 23 24 24 26 24 24 23 21 16 14 15 19 21 21 22 27 29 30 29 28 26 26 24
53 52 52 52 53 54 56 55 52 51 50 50 49 50 46 42 42 42 38 32 27 34 39 39 39 40 37 38 36 29 29 30 31 29 32 29 25 25 24 24 22 22 22 21 22 22 22 23 24 23 24 23 22 20 21 21 19 21 23 22 22 23 22 23 24 24 23 19 21 20 10 9 9 9 10 12 13 16 19 22 27 29 29 28 26 25 24 24
52 52 52 53 53 54 56 42 47 52 50 48 50 50 46 44 42 40 29 23 21 26 31 34 39 33 38 32 35 32 30 27 30 30 38 32 31 25 24 23 23 20 22 21 22 22 21 23 24 23 23 22 21 21 23 21 20 20 21 24 24 24 24 24 24 23 18 13 11 20 15 13 14 14 14 15 17 19 21 25 29 30 29 29 26 23 20 19
51 51 52 52 53 54 38 34 45 49 44 49 51 49 46 45 43 43 28 20 18 27 27 32 31 30 33 32 32 21 16 17 28 28 23 31 23 29 17 19 20 23 21 22 24 18 25 23 23 23 22 21 22 21 22 23 21 20 23 23 24 23 23 23 24 23 20 21 21 21 21 16 15 14 16 19 20 22 24 27 30 30 29 29 25 20 17 18
51 51 51 53 53 55 49 51 49 49 50 51 50 47 45 44 43 39 25 20 15 30 28 31 32 36 36 35 33 15 10 21 13 20 24 25 24 20 20 19 19 19 20 22 14 23 22 22 22 22 21 21 21 23 22 24 22 22 25 24 23 23 23 23 23 21 20 19 18 17 20 16 17 16 16 22 21 22 23 27 29 28 29 26 19 17 17 18
50 51 52 53 53 54 53 51 51 50 52 51 48 45 45 43 38 24 23 19 23 18 33 27 35 34 34 28 24 27 26 26 19 22 28 23 25 21 16 20 20 19 19 21 20 22 22 22 22 23 21 21 23 22 22 24 22 25 25 25 25 24 24 24 22 21 21 18 16 16 18 14 15 16 16 20 21 22 24 26 28 27 27 21 16 16 17 18
50 51 52 52 50 47 47 49 51 51 51 48 48 46 48 45 27 27 27 15 22 20 30 30 32 29 31 24 24 24 21 24 26 25 17 15 20 27 24 20 20 20 21 23 20 23 22 29 28 21 22 23 23 25 24 23 24 25 23 24 23 23 22 21 21 20 13 13 16 17 20 20 14 13 11 18 21 26 26 17 15 18 21 14 14 15 18 19
50 51 52 51 45 46 46 41 49 49 49 48 48 48 46 27 23 21 15 26 20 22 31 32 31 33 30 25 20 23 24 25 24 20 15 21 17 25 27 26 27 24 22 22 21 24 24 25 24 24 29 26 26 24 24 25 24 24 23 22 23 22 21 17 13 15 10 11 13 12 19 12 5 -0 20 17 16 23 14 9 10 16 15 13 15 16 17 19
50 51 52 49 47 49 37 35 47 50 51 49 48 35 9 17 25 24 24 30 24 27 23 25 30 30 29 27 25 25 23 24 24 21 19 21 20 25 25 24 24 19 19 18 21 22 23 22 24 26 32 26 24 23 24 25 23 20 21 22 19 17 12 4 5 6 6 8 11 9 7 5 2 0 5 15 23 12 8 4 10 13 13 14 15 17 18 21
50 52 51 48 50 49 50 49 50 50 51 49 39 21 23 22 23 25 21 25 27 24 22 29 28 30 29 21 21 24 25 22 22 17 22 22 20 22 25 28 27 21 17 21 20 21 20 23 23 23 26 28 26 22 23 20 21 16 18 20 16 10 6 9 13 13 10 8 3 1 8 8 8 13 22 23 23 11 9 4 12 11 12 14 16 17 18 22
51 52 46 47 48 49 50 51 51 50 52 44 39 17 26 19 22 35 21 24 28 28 31 30 30 25 26 15 20 24 15 23 20 18 22 19 21 21 24 26 27 27 21 22 14 19 9 10 18 20 20 25 26 25 21 21 13 10 22 22 16 13 16 9 11 4 2 3 7 10 10 6 10 10 21 15 17 1 1 6 11 13 14 16 15 16 15 20
51 47 46 47 48 50 50 50 50 51 48 37 23 14 20 24 23 24 22 22 23 28 29 29 26 20 20 24 23 23 17 16 22 18 21 20 18 22 23 25 26 27 25 17 17 19 15 11 16 26 25 25 21 23 26 18 3 17 22 22 16 17 20 9 7 6 4 6 7 9 9 9 6 7 13 6 1 -1 1 7 11 10 12 15 15 16 15 17
48 47 50 49 49 50 49 51 51 52 44 25 16 11 14 21 28 21 20 25 29 24 26 22 23 16 21 22 22 20 22 16 16 17 18 23 24 22 25 26 24 26 25 19 22 18 21 19 25 26 24 19 16 15 12 15 3 12 17 14 18 23 17 10 7 10 11 12 11 11 1 3 2 1 5 1 -1 -3 0 8 10 10 12 15 17 17 16 17
43 44 44 45 47 48 51 51 52 47 36 22 13 15 19 21 25 25 37 25 28 29 23 16 19 15 18 18 21 22 20 14 17 14 10 21 19 25 26 26 25 24 25 25 22 25 19 19 23 22 19 23 21 13 15 20 21 20 11 9 20 20 16 10 4 3 4 1 1 2 2 -4 -2 -0 5 -1 -1 -1 4 10 9 10 13 15 17 17 17 19
42 46 47 47 47 48 50 51 52 44 35 24 18 29 22 20 21 15 31 32 31 28 25 16 21 13 16 20 21 19 19 14 15 23 21 23 17 26 25 25 25 20 22 25 20 22 24 14 13 20 19 21 21 15 15 23 21 9 6 16 7 2 5 7 7 0 -2 -5 -4 -1 -2 2 -3 -4 -1 -1 0 3 7 8 7 8 13 16 16 16 17 20
42 38 31 42 49 51 50 50 48 41 25 20 21 20 29 19 29 30 32 32 30 28 26 26 19 22 23 21 22 20 18 14 16 22 5 11 10 18 23 24 23 21 22 23 19 25 24 15 12 19 14 15 8 11 2 11 16 17 15 5 13 15 12 4 3 5 2 -1 -1 -3 -1 -1 2 -4 1 2 4 7 6 5 8 12 15 16 16 17 17 20
42 26 29 48 50 51 51 51 45 37 26 21 24 22 28 25 29 33 34 33 32 30 29 26 25 21 22 23 20 20 20 17 23 23 12 19 23 23 20 21 19 17 24 23 17 23 17 24 11 4 13 6 -3 14 9 10 8 6 5 6 11 8 11 9 8 6 0 -0 -1 -2 -3 0 3 4 5 7 6 6 5 8 12 15 16 15 15 16 17 22
39 28 31 49 50 49 50 45 38 34 32 32 29 27 32 28 35 35 33 34 34 33 28 27 25 23 24 24 23 21 23 23 22 19 21 21 19 15 22 18 20 15 21 21 14 16 6 16 8 -0 1 -2 2 20 14 12 11 9 7 7 10 10 8 6 3 7 3 -1 -1 2 1 7 9 7 7 8 6 6 10 14 15 15 14 15 15 15 18 24
27 17 29 50 50 50 45 37 34 34 33 31 26 33 33 42 35 33 32 32 34 31 31 29 27 26 24 25 24 24 22 20 21 19 20 17 22 21 18 20 21 20 14 8 11 14 16 18 12 9 3 2 8 10 15 13 13 14 12 9 13 10 10 5 4 4 7 8 10 11 8 7 9 9 9 8 9 12 15 15 13 12 12 13 13 16 19 21
26 23 47 48 48 48 41 34 37 37 35 34 36 35 38 37 35 34 32 32 31 31 29 30 28 26 25 25 23 22 20 17 22 20 20 23 22 19 18 19 17 17 21 15 15 19 14 2 -1 6 5 3 6 9 15 13 7 6 8 12 12 11 12 12 12 11 10 11 8 8 6 7 10 10 9 11 14 15 13 10 9 9 10 11 13 15 15 16
37 42 43 48 46 42 35 27 27 33 34 35 36 36 36 37 33 32 30 30 29 27 28 26 26 23 22 23 21 18 18 3 15 18 17 22 19 20 19 17 17 12 12 8 0 14 -2 -1 2 0 -7 -14 -15 -4 1 6 7 6 9 11 14 14 13 13 13 12 7 9 8 8 2 6 11 11 13 14 13 10 7 5 6 8 10 11 12 14 14 16
37 37 41 41 43 40 34 32 27 30 33 33 33 31 32 32 34 33 31 28 29 28 26 24 24 24 22 23 23 22 21 11 13 21 20 21 22 23 21 18 18 12 17 26 28 25 10 12 2 -9 -10 -14 -15 -14 -9 -0 6 9 11 12 13 13 11 11 6 9 6 9 9 7 6 8 10 12 12 11 7 4 3 5 7 9 9 10 12 13 14 16
25 16 37 33 40 39 38 37 34 30 32 32 27 30 32 29 28 31 31 28 26 27 25 27 25 23 22 19 20 20 19 20 15 17 18 16 21 20 20 18 17 16 26 23 24 22 6 15 9 6 3 -2 -1 1 5 12 10 10 11 13 12 12 13 12 12 10 7 7 8 9 10 10 10 10 8 5 3 3 3 5 6 7 9 11 12 13 14 15
33 21 31 27 39 38 34 35 34 31 28 30 24 29 27 27 28 26 30 26 27 24 26 23 21 19 19 19 18 17 20 18 18 17 17 17 19 19 18 17 16 23 27 24 25 16 13 10 11 8 6 6 7 8 9 14 11 12 12 12 12 12 12 11 9 7 9 9 4 9 9 9 8 7 4 3 3 4 5 5 7 8 10 12 13 13 19 13
23 28 32 34 31 29 32 32 35 34 33 29 28 29 27 27 27 24 28 27 26 25 20 18 22 22 21 17 18 9 17 16 16 13 14 18 17 19 16 20 16 25 24 19 26 17 12 7 9 10 8 9 10 10 12 12 12 12 12 12 11 11 11 8 8 9 9 7 6 7 8 7 6 4 4 4 4 4 5 6 8 10 11 12 12 13 13 13
33 30 36 37 32 33 34 34 35 33 32 31 30 30 27 26 26 26 26 25 24 21 20 16 19 20 21 21 16 13 18 7 9 15 12 13 17 16 13 12 16 19 18 17 17 17 15 8 13 13 12 13 12 12 12 12 12 12 11 10 9 9 9 9 8 9 9 8 7 5 3 4 4 4 4 5 6 7 7 9 10 11 11 12 13 13 13 14
29 27 28 37 35 33 33 33 34 34 31 34 28 29 28 27 25 28 27 25 22 23 21 17 20 21 21 20 18 15 17 16 14 10 16 14 9 15 13 13 12 17 17 14 15 18 11 6 18 14 10 10 11 12 11 11 10 9 9 9 9 9 8 9 8 3 4 3 3 3 4 4 5 4 4 5 7 9 9 10 11 12 13 14 13 13 14 14
38 38 36 33 30 31 32 32 32 32 30 32 29 29 30 29 27 29 28 27 24 22 21 19 21 21 22 20 19 18 21 18 18 16 20 16 9 16 9 4 16 13 15 14 16 15 16 9 14 12 7 8 9 8 9 9 9 8 7 7 7 6 3 2 4 3 4 5 3 4 5 3 2 4 6 8 9 10 11 11 12 13 13 14 14 14 15 15
38 39 39 36 29 35 30 32 31 30 27 29 30 30 30 30 31 30 28 29 24 27 25 23 22 20 20 16 17 19 21 19 19 20 21 20 19 19 18 18 17 16 13 14 16 16 16 13 7 5 7 8 8 8 9 9 6 -1 -5 -1 10 4 3 3 3 5 5 5 6 4 3 2 4 7 7 9 10 11 12 13 14 15 15 16 16 16 16 16